Location: Caltech
(34.1382°N, 118.1253°W)
Time: 04:52:02
(UTC-07:00)

ARGOS - Visible Passes

Search period start: 28 May 2016 00:00
Search period end: 07 June 2016 00:00
Orbit: 821 x 834 km, 98.7° (Epoch: 27 May)

Date Brightness Start Highest point End Pass type
(mag) Time Alt. Az. Time Alt. Az. Time Alt. Az.
28 May 3.5 21:55:58 39° ESE 21:57:26 49° ENE 22:02:39 10° N visible
28 May 5.2 23:37:28 17° W 23:37:52 18° W 23:41:26 10° NW visible
29 May 4.1 21:37:09 26° ESE 21:39:01 33° ENE 21:43:49 10° N visible
29 May 4.6 23:18:40 26° WSW 23:19:11 27° W 23:23:44 10° NW visible
30 May 4.6 21:18:20 17° E 21:20:40 22° ENE 21:24:45 10° NNE visible
30 May 4.0 22:59:51 38° WSW 23:00:34 40° W 23:05:40 10° NNW visible
31 May 5.0 20:59:31 10° E 21:02:21 15° ENE 21:05:18 10° NNE visible
31 May 3.4 22:41:02 53° SW 22:42:00 62° WSW 22:47:23 10° NNW visible
01 Jun 3.1 22:22:14 56° SSE 22:23:28 87° ENE 22:28:55 10° NNW visible
02 Jun 3.3 22:03:25 42° SE 22:04:59 58° ENE 22:10:19 10° N visible
02 Jun 5.3 23:44:56 14° W 23:45:31 15° W 23:48:26 10° WNW visible
03 Jun 3.9 21:44:37 29° ESE 21:46:33 38° ENE 21:51:32 10° N visible
03 Jun 4.8 23:26:08 22° WSW 23:26:50 23° W 23:31:01 10° NW visible
04 Jun 4.4 21:25:48 19° ESE 21:28:10 26° ENE 21:32:35 10° NNE visible
04 Jun 4.3 23:07:19 32° WSW 23:08:11 34° W 23:13:06 10° NNW visible
05 Jun 4.9 21:07:00 12° E 21:09:50 18° ENE 21:13:20 10° NNE visible
05 Jun 3.7 22:48:31 45° SW 22:49:36 52° W 22:54:53 10° NNW visible
06 Jun 5.2 20:49:44 10° E 20:51:33 12° ENE 20:53:21 10° NE visible
06 Jun 3.1 22:29:43 53° S 22:31:02 79° WSW 22:36:29 10° NNW visible
